Terminal Aerodrome Forecast
Issued by NWS Detroit/Pontiac, MI

Home | Current Version | Previous Version | Text Only | Print | Product List | Glossary On
Versions: 1 2 3 4 5 6 7 8 9 10 11 12 13 14 15 16 17 18 19 20 21 22 23 24 25 26 27 28 29 30 31 32
466
FTUS43 KDTX 131436 AAB
TAFDTW
TAF AMD
KDTW 131436Z 1315/1418 19007KT 3SM -SN BKN025 OVC035
      TEMPO 1315/1317 1SM -SN BKN015 OVC025
     FM131700 16010KT 1/2SM SN OVC018
     FM132100 12012KT 1/4SM +SN OVC006
     FM140300 04007KT 2SM -SHSN OVC012
     FM140500 35008KT P6SM BKN045
     FM141200 33009KT P6SM FEW050 SCT100=

USA.gov is the U.S. government's official web portal to all federal, state and local government web resources and services.